www.pogodaiklimat.ru
ПОГОДА в Тегусигальпе
Время
(UTC), дата
03 25.10
06 25.10
09 25.10
12 25.10
15 25.10
18 25.10
21 25.10
00 26.10
03 26.10
06 26.10
09 26.10
12 26.10
15 26.10
18 26.10
21 26.10
00 27.10
03 27.10
06 27.10
09 27.10
12 27.10
15 27.10
18 27.10
21 27.10
00 28.10
03 28.10
06 28.10
09 28.10
12 28.10
15 28.10
18 28.10
21 28.10
00 29.10
03 29.10
06 29.10
09 29.10
12 29.10
15 29.10
18 29.10
21 29.10
00 30.10
03 30.10
06 30.10
09 30.10
12 30.10
15 30.10
18 30.10
21 30.10
00 31.10
03 31.10
06 31.10
09 31.10
12 31.10
15 31.10
18 31.10
21 31.10
00 1.11
Ветер
(напр.,м/с)
Видим. Явления Облачность Т
(С)
Тd
(С)
f
(%)
Тe
(С)
Тes
(С)
Комфортность P
(гПа)
Po
(гПа)
Тmin
(С)
Tmax
(С)
R
(мм)
R24
(мм)
S
(см)
Ю 1 9000 м мгла 4/1 840 м
[Sc Ac trans Ci ing]
+21.8 +21.8 100 +28 +28 душно 1012.9 902.2
З 1 9000 м мгла 5/4 840 м
[Sc Ac trans Ci ing]
+20.6 +20.6 100 +26 +26 душно 1012.4 901.4 +19.4 +28.4
штиль 0 8000 м мгла 8/8 800 м
[Sc Ac trans Ci ing]
+20.4 +20.4 100 +24 +24 комфорт 1011.6 900.6
штиль 0 3000 м дымка {туман} 8/5 180 м
[Sc Ac trans Cs]
+19.0 +19.0 100 +21 +21 комфорт 1013.1 901.5 +19.0 +28.4
штиль 0 7000 м дымка {туман} 9/5 800 м
[Sc Ac As]
+23.5 +23.5 100 +32 +34 очень
душно
1013.3 903.2
С 2 10 км мгла 9/5 840 м
[Cb calv Ac und Ci]
+27.0 +22.4 76 +35 +41 очень
душно
1010.1 901.6 +18.5 +27.0
штиль 0 10 км мгла 9/6 900 м
[Cb cap Ac trans Cs]
+26.6 +24.2 87 +37 +40 очень
душно
1006.7 898.4
С 5 10 км в посл. час гроза {туман} 9/4 840 м
[Cu med, cong Ac trans Cs]
+22.5 +22.5 100 +30 +30 очень
душно
1009.8 899.7 +18.5 +29.0
С 3 10 км мгла 8/5 300 м
[Sc Ac trans Cs]
+21.3 +21.3 100 +27 +27 душно 1012.9 902.0
нст 1 10 км мгла 8/4 800 м
[Sc Ac trans Cs]
+20.1 +20.1 100 +25 +25 комфорт 1013.4 902.0 +18.5 +29.0
штиль 0 10 км дымка {туман} 4/3 800 м
[Sc Ac trans Ci fib]
+17.9 +17.9 100 +18 +18 тепло 1012.3 900.3
штиль 0 7000 м дымка {туман} 9/8 210 м
[Sc Ac trans Cs]
+17.3 +17.3 100 +17 +17 тепло 1014.4 901.9 +17.1 +29.0
штиль 0 10 км мгла 8/3 840 м
[Sc Ac trans Cs]
+23.0 +22.9 99 +32 +37 очень
душно
1013.2 902.9
С 4 10 км мгла 8/4 900 м
[Cu med, cong Ac lent Cc]
+27.3 +20.1 65 +34 +38 очень
душно
1009.8 901.4 +17.1 +27.3
ЮВ 2 10 км мгла 4/4 840 м
[Cb calv Ac trans Ci fib]
+28.4 +19.5 59 +34 +39 очень
душно
1006.6 898.9
Ю 2 10 км мгла 8/6 900 м
[Cb calv Ac trans Ci fib]
+23.8 +22.6 93 +31 +31 очень
душно
1009.7 900.1 +17.1 +29.7
Ю 2 10 км мгла 9/5 900 м
[Sc Ac und Ci fib]
+22.0 +22.0 100 +29 +29 очень
душно
1013.2 902.6
штиль 0 10 км мгла 8/3 900 м
[Sc Ac trans Cs]
+19.6 +19.6 100 +22 +22 комфорт 1013.3 901.9 +17.1 +29.7
штиль 0 10 км мгла 5/1 840 м
[Sc Ac trans Ci fib]
+18.7 +18.7 100 +20 +20 тепло 1012.7 901.0
штиль 0 10 км дымка {туман} 8/3 840 м
[Sc Ac trans Ci fib]
+17.7 +17.7 100 +18 +18 тепло 1014.5 902.2 +17.7 +29.7
нст 1 10 км мгла 8/4 840 м
[Cb calv Ac und Cs]
+23.1 +19.4 80 +30 +33 очень
душно
1012.6 902.0
ЮЗ 4 10 км мгла 6/6 900 м
[Cu med, cong Ci fib]
+26.4 +19.5 66 +32 +36 очень
душно
1010.6 900.7 +17.4 +26.4
Ю 5 8000 м осадки на расстоянии {туман} 8/8 600 м
[Sc diur, vesp Ac und Cs]
+24.3 +19.1 73 +29 +30 душно 1009.7 899.2
Ю 2 10 км {мгла} 8/8 900 м
[Sc diur, vesp Ac und Cs]
+22.4 +19.0 81 +28 +28 душно 1012.3 900.7 +17.4 +28.5
нст 1 10 км мгла 8/1 840 м
[Sc Ac trans Cs]
+20.6 +20.6 100 +26 +26 душно 1014.5 903.2
нст 1 10 км мгла 6/6 840 м
[Sc Ac trans Ci fib]
+19.8 +19.8 100 +24 +24 комфорт 1014.8 903.4 +17.4 +28.5
штиль 0 10 км мгла 6/4 800 м
[Sc Ac trans Ci fib]
+19.0 +19.0 100 +21 +21 комфорт 1013.7 902.0
штиль 0 5000 м дымка {туман} 8/8 210 м
[Sc Ac trans]
+18.6 +18.6 100 +20 +20 тепло 1014.6 902.6 +18.4 +28.5
штиль 0 10 км мгла 9/8 600 м
[Cu Sc As op Cs]
+24.1 +23.3 95 +32 +34 очень
душно
1013.8 903.8
СВ 3 15 км мгла 9/6 900 м
[Cu hum Ac trans Cc]
+27.4 +21.7 71 +35 +39 очень
душно
1010.1 901.8 +18.4 +27.4
В 4 15 км гроза без осадков {туман} 8/6 900 м
[Cb cap Ac trans Ci ing]
+28.3 +22.1 69 +37 +38 очень
душно
1007.3 899.5
штиль 0 10 км гроза без осадков {туман} 9/6 900 м
[Cb cap Ac cuf Ci ing]
+23.9 +23.8 99 +32 +32 очень
душно
1010.5 900.8 +18.4 +31.3
ЮВ 3 10 км зарница {туман} 8/1 840 м
[Cb cap Ac trans]
+23.0 +19.5 81 +30 +30 очень
душно
1013.4 902.1
штиль 0 8000 м слаб. дождь {гроза, туман} 8/3 800 м
[Cb cap Ac trans]
+20.5 +19.9 96 +24 +24 комфорт 1013.8 901.5 +18.4 +31.3 0.6
штиль 0 8000 м дымка {дождь, туман} 9/9 240 м
[St As op Cs]
+20.3 +20.0 98 +24 +24 комфорт 1012.5 900.3 0.2
штиль 0 4000 м гроза, ливневой дождь 9/9 240 м
[Cb cap]
+20.6 +19.2 92 +24 +24 комфорт 1014.3 902.0 +20.3 +31.3 0.1
нст 1 8000 м мгла {гроза, дождь} 8/5 240 м
[Cu med, cong Ac trans Cs]
+22.5 +17.9 75 +28 +31 душно 1014.3 903.1 0.4
СВ 5 10 км мгла {гроза, дождь} 6/6 840 м
[Cb cap Ac trans Ci fib]
+27.9 +19.2 59 +33 +37 очень
душно
1009.4 900.3 +20.3 +27.9 0.4
С 5 10 км мгла 6/6 900 м
[Cb cap Ac trans Ci fib]
+28.8 +18.5 54 +34 +35 очень
душно
1006.4 898.0
нст 1 8000 м гроза без осадков {ливн. дождь} 8/8 900 м
[Cb cap Ac cuf Ci ing]
+21.0 +20.3 96 +27 +27 душно 1011.4 899.7 +20.3 +29.0 17 17.9
ЮВ 3 10 км зарница {туман} 9/5 840 м
[Cb cap Ac cuf Ci ing]
+20.5 +20.5 100 +25 +25 комфорт 1015.4 904.0
С 3 10 км мгла 9/5 840 м
[Sc Ac cuf Ci ing]
+20.0 +20.0 100 +24 +24 комфорт 1015.2 903.6 +20.3 +29.0
С 2 6000 м дымка {туман} 9/8 200 м
[St As op Cs]
+19.9 +19.9 100 +24 +24 комфорт 1013.6 902.2
штиль 0 5000 м дымка {туман} 9/8 180 м
[Sc Ac trans Ci fib]
+20.2 +20.0 99 +24 +24 комфорт 1014.5 903.0 +19.9 +29.0
СВ 4 10 км мгла 9/0 300 м
[Ac As Cs]
+24.1 +24.1 100 +33 +35 очень
душно
1014.6 904.6
С 5 10 км осадки на расстоянии {туман} 8/8 600 м
[Cu Sc Ac trans]
+26.6 +19.4 65 +31 +33 душно 1013.3 903.7 +19.4 +26.6
С 6 8000 м ливневой дождь {туман} 8/6 900 м
[Cb calv Ci fib]
+25.1 +20.8 77 +31 +32 очень
душно
1009.6 901.2 3
нст 1 10 км зарница {ливн. дождь, дождь} 9/6 900 м
[Cb cap Ci ing]
+20.9 +20.9 100 +27 +27 душно 1013.3 902.3 +19.4 +28.5 2 5.8
нст 1 10 км мгла 6/6 840 м
[Cu med, cong Ac trans Cs]
+21.2 +19.1 88 +26 +26 душно 1013.9 904.2
С 2 8000 м мгла 8/6 240 м
[Sc Ac trans Ci fib]
+20.5 +18.8 90 +25 +25 комфорт 1006.2 904.2 +19.4 +28.5
С 4 7000 м в посл. час дождь {туман} 9/8 180 м
[Sc Ac trans Ci fib]
+19.7 +18.8 95 +23 +23 комфорт 1005.5 903.1 0.4
СВ 3 7000 м дымка {дождь, туман} 9/9 180 м
[Sc Ac trans Ci fib]
+19.5 +18.2 92 +22 +22 комфорт 1006.3 903.5 +19.3 +28.5 0.4
С 5 10 км мгла 6/5 360 м
[Cu Sc Ac trans Ci fib]
+23.6 +18.9 75 +28 +30 душно 1006.9 905.0
С 6 12 км мгла 6/6 900 м
[Cu med, cong Ci fib]
+26.3 +17.4 58 +30 +33 душно 1006.6 904.0 +19.3 +26.3
С 8 10 км осадки на расстоянии {туман} 8/5 900 м
[Cu med, cong Ac trans Ci fib]
+25.6 +17.5 61 +30 +30 душно 1005.8 901.7
СВ 2 10 км осадки на расстоянии {туман} 6/5 800 м
[Cb calv Ac trans Ci fib]
+21.7 +18.4 82 +26 +26 душно 1005.4 902.6 +19.3 +26.3 0.4
Местоположение метеостанции Тегусигальпа (Гондурас): широта 14.05 долгота -87.21 высота над уровнем моря 1007 м.
В архиве по умолчанию представлена погода в Тегусигальпе за последнюю неделю. Архивные данные за месяц целиком и за предыдущие месяцы, начиная с января 2011 года, Вы можете получить, выбрав интересующий диапазон дат из раскрывающегося списка и нажав кнопку "Найти!".
*Определитесь, кто Вы:
Внимание! Время в таблицах - всемирное. Для получения местного времени необходимо прибавить поправку, которая равна -6 ч.
Смотрите также архив погоды в соседних городах и на ближайших метеорологических станциях:
Партнеры нашего сайта:      
Пояснения к столбцам:
  • Ветер - указаны скорость ветра в м/с - средняя за 10 мин, порывы в срок и между сроками (в фигурных скобках) и направление, откуда дует ветер: С - северный,
  • СВ - северо-восточный, В - восточный, ЮВ - юго-восточный, Ю - южный, ЮЗ - юго-западный, З - западный, СЗ - северо-западный.
  • Видимость - горизонтальная дальность видимости в метрах или километрах. При видимости от 1 до 10 км при отсутствии осадков обычно наблюдается дымка, при ухудшении видимости до 1 км и менее - туман. В сухую погоду видимость может ухудшаться дымом, пылью или мглою.
  • Явления - указаны атмосферные явления, наблюдавшиеся в срок или в последний час перед сроком; фигурными скобками обозначены явления, наблюдавшиеся между сроками (за 1-3 часа до срока); квадратными скобками обозначены град или гололедные отложения с указанием их диаметра в мм.
  • Облачность - указаны через наклонную черту общая и нижняя облачность в баллах и высота нижней границы облаков в метрах; квадратными скобками обозначены формы облаков: Ci - перистые, Cs - перисто-слоистые, Cc - перисто-кучевые, Ac - высококучевые, As - высокослоистые, Sc - слоисто-кучевые, Ns - слоисто-дождевые, Cu - кучевые, Cb - кучево-дождевые. Подробнее классификацию облаков см. в Атласе облаков (PDF).
  • T - Температура воздуха - температура, измеренная на высоте 2 м над землей.
  • Td - Температура точки росы - температура, при понижении до которой содержащийся в воздухе водяной пар достигнет насыщения.
  • f - Относительная влажность воздуха - влажноcть воздуха, измеренная на высоте 2 м над землей.
  • Te - Эффективная температура - температура, которую ощущает одетый по сезону человек в тени. Характеристика душности погоды. При расчете учитывается влияние влажности воздуха и скорости ветра на теплоощущения человека.
  • Tes - Эффективная температура на солнце - температура, которую ощущает человек, с поправкой на солнечный нагрев. Характеристика знойности погоды. Зависит от высоты солнца над горизонтом, облачности и скорости ветра. Ночью, в пасмурную погоду, а также при ветре 12 м/с и более поправка равна нулю.
  • P - Атмосферное давление - приведенное к уровню моря атмосферное давление.
  • Po - Атмосферное давление - измеренное на уровне метеостанции атмосферное давление.
  • Tmin - Минимальная температура - минимум температуры воздуха на высоте 2 м над землей.
  • Tmax - Максимальная температура - максимум температуры воздуха на высоте 2 м над землей.
  • R - Количество осадков - Количество выпавших осадков за период времени, мм. При наведении курсора мыши на число - период времени, за который выпало указанное количество осадков.
  • R24 - Количество осадков - Количество выпавших осадков за 24 часа, мм.
  • S - Снежный покров - Высота снежного покрова, см. При наведении курсора мыши на число - состояние снежного покрова и степень покрытия местности в баллах.